Location: Arborea
(39.7744°N, 8.5819°E)
Time: 04:32:05
(UTC+00:00)

Cosmos 1953 - Pass Details

Date: 03 June 2022
Orbit: 533 x 555 km, 82.5° (Epoch: 04 July)

Event Time Altitude Azimuth Distance (km) Brightness Sun altitude
Rises 22:51:53 0° 355° (N) 2,708 7.1 -27.4°
Reaches altitude 10° 22:54:04 10° 357° (N) 1,808 5.9 -27.4°
Enters shadow 22:56:42 39° 10° (N) 814 3.5 -27.5°
